Location: Newark
(30.1000°N, 109.4667°E)
Time: 00:28:36
(UTC+00:00)

SR - Pass Details

Date: 20 February 2020
Orbit: 577 x 878 km, 66.7° (Epoch: 28 March)

Event Time Altitude Azimuth Distance (km) Brightness Sun altitude
Rises 09:25:23 0° 249° (WSW) 3,436 ? 13.3°
Reaches altitude 10° 09:28:52 10° 270° (W) 2,520 ? 12.6°
Maximum altitude 09:32:24 16° 307° (NW) 2,118 ? 11.9°
Drops below altitude 10° 09:35:57 10° 344° (NNW) 2,522 ? 11.2°
Sets 09:39:28 0° 6° (N) 3,439 ? 10.5°
